owner,sensor,date,latitude,longitude,vertical_datum,mass_concentration_of_oxygen_in_sea_water,qcFlag 
DISL,ioos:station:DISL:CATA:1,2012-09-01T00:00:00Z,30.3085,-88.1395,2.198,7.12,1111122 
DISL,ioos:station:DISL:CATA:1,2012-09-01T00:30:00Z,30.3085,-88.1395,2.188,7.12,1111122 
DISL,ioos:station:DISL:CATA:1,2012-09-01T01:00:00Z,30.3085,-88.1395,2.19,7.12,1111122 
DISL,ioos:station:DISL:CATA:1,2012-09-01T01:30:00Z,30.3085,-88.1395,2.195,7.09,1111122 
DISL,ioos:station:DISL:CATA:1,2012-09-01T02:00:00Z,30.3085,-88.1395,2.199,7.0,1111122 
DISL,ioos:station:DISL:CATA:1,2012-09-01T02:30:00Z,30.3085,-88.1395,2.208,6.97,1111122 
DISL,ioos:station:DISL:CATA:1,2012-09-01T03:00:00Z,30.3085,-88.1395,2.214,6.93,1111122 
DISL,ioos:station:DISL:CATA:1,2012-09-01T03:30:00Z,30.3085,-88.1395,2.223,6.88,1111122 
DISL,ioos:station:DISL:CATA:1,2012-09-01T04:00:00Z,30.3085,-88.1395,2.238,6.81,1111122 
DISL,ioos:station:DISL:CATA:1,2012-09-01T04:30:00Z,30.3085,-88.1395,2.246,6.55,1111122 
DISL,ioos:station:DISL:CATA:1,2012-09-01T05:00:00Z,30.3085,-88.1395,2.25,6.62,1111122 
DISL,ioos:station:DISL:CATA:1,2012-09-01T05:30:00Z,30.3085,-88.1395,2.245,6.65,1111122 
DISL,ioos:station:DISL:CATA:1,2012-09-01T06:00:00Z,30.3085,-88.1395,2.241,6.63,1111122 
DISL,ioos:station:DISL:CATA:1,2012-09-01T06:30:00Z,30.3085,-88.1395,2.245,6.62,1111122 
DISL,ioos:station:DISL:CATA:1,2012-09-01T07:00:00Z,30.3085,-88.1395,2.247,6.58,1111122 
DISL,ioos:station:DISL:CATA:1,2012-09-01T07:30:00Z,30.3085,-88.1395,2.246,6.55,1111122 
DISL,ioos:station:DISL:CATA:1,2012-09-01T08:00:00Z,30.3085,-88.1395,2.246,6.46,1111122 
DISL,ioos:station:DISL:CATA:1,2012-09-01T08:30:00Z,30.3085,-88.1395,2.237,6.28,1111122 
DISL,ioos:station:DISL:CATA:1,2012-09-01T09:00:00Z,30.3085,-88.1395,2.23,6.44,1111122 
DISL,ioos:station:DISL:CATA:1,2012-09-01T09:30:00Z,30.3085,-88.1395,2.232,6.28,1111122 
DISL,ioos:station:DISL:CATA:1,2012-09-01T10:00:00Z,30.3085,-88.1395,2.236,6.25,1111122 
DISL,ioos:station:DISL:CATA:1,2012-09-01T10:30:00Z,30.3085,-88.1395,2.237,6.25,1111122 
DISL,ioos:station:DISL:CATA:1,2012-09-01T11:00:00Z,30.3085,-88.1395,2.235,6.26,1111122 
DISL,ioos:station:DISL:CATA:1,2012-09-01T11:30:00Z,30.3085,-88.1395,2.241,6.25,1111122 
DISL,ioos:station:DISL:CATA:1,2012-09-01T12:00:00Z,30.3085,-88.1395,2.258,6.28,1111122 
DISL,ioos:station:DISL:CATA:1,2012-09-01T12:30:00Z,30.3085,-88.1395,2.265,6.25,1111122 
DISL,ioos:station:DISL:CATA:1,2012-09-01T13:00:00Z,30.3085,-88.1395,2.269,6.24,1111122 
DISL,ioos:station:DISL:CATA:1,2012-09-01T13:30:00Z,30.3085,-88.1395,2.291,5.92,1111122 
DISL,ioos:station:DISL:CATA:1,2012-09-01T14:00:00Z,30.3085,-88.1395,2.305,6.37,1111122 
DISL,ioos:station:DISL:CATA:1,2012-09-01T14:30:00Z,30.3085,-88.1395,2.324,6.59,1111122 
DISL,ioos:station:DISL:CATA:1,2012-09-01T15:00:00Z,30.3085,-88.1395,2.341,6.81,1111122 
DISL,ioos:station:DISL:CATA:1,2012-09-01T15:30:00Z,30.3085,-88.1395,2.356,6.86,1111122 
DISL,ioos:station:DISL:CATA:1,2012-09-01T16:00:00Z,30.3085,-88.1395,2.365,6.99,1111122 
DISL,ioos:station:DISL:CATA:1,2012-09-01T16:30:00Z,30.3085,-88.1395,2.371,7.12,1111122 
DISL,ioos:station:DISL:CATA:1,2012-09-01T17:00:00Z,30.3085,-88.1395,2.378,7.29,1111122 
DISL,ioos:station:DISL:CATA:1,2012-09-01T17:30:00Z,30.3085,-88.1395,2.388,7.05,1111122 
DISL,ioos:station:DISL:CATA:1,2012-09-01T18:00:00Z,30.3085,-88.1395,2.398,7.05,1111122 
DISL,ioos:station:DISL:CATA:1,2012-09-01T18:30:00Z,30.3085,-88.1395,2.402,7.29,1111122 
DISL,ioos:station:DISL:CATA:1,2012-09-01T19:00:00Z,30.3085,-88.1395,2.406,7.58,1111122 
DISL,ioos:station:DISL:CATA:1,2012-09-01T19:30:00Z,30.3085,-88.1395,2.403,7.83,1111122 
DISL,ioos:station:DISL:CATA:1,2012-09-01T20:00:00Z,30.3085,-88.1395,2.394,8.1,1111122 
DISL,ioos:station:DISL:CATA:1,2012-09-01T20:30:00Z,30.3085,-88.1395,2.381,8.32,1111122 
DISL,ioos:station:DISL:CATA:1,2012-09-01T21:00:00Z,30.3085,-88.1395,2.366,8.28,1111122 
DISL,ioos:station:DISL:CATA:1,2012-09-01T21:30:00Z,30.3085,-88.1395,2.344,8.02,1111122 
DISL,ioos:station:DISL:CATA:1,2012-09-01T22:00:00Z,30.3085,-88.1395,2.333,8.3,1111122 
DISL,ioos:station:DISL:CATA:1,2012-09-01T22:30:00Z,30.3085,-88.1395,2.315,8.11,1111122 
DISL,ioos:station:DISL:CATA:1,2012-09-01T23:00:00Z,30.3085,-88.1395,2.301,7.99,1111122 
DISL,ioos:station:DISL:CATA:1,2012-09-01T23:30:00Z,30.3085,-88.1395,2.288,8.07,1111122 
DISL,ioos:station:DISL:CATA:1,2012-09-02T00:00:00Z,30.3085,-88.1395,2.278,7.98,1111122 
DISL,ioos:station:DISL:CATA:1,2012-09-02T00:30:00Z,30.3085,-88.1395,2.275,8.08,1111122 
DISL,ioos:station:DISL:CATA:1,2012-09-02T01:00:00Z,30.3085,-88.1395,2.278,8.09,1111122 
DISL,ioos:station:DISL:CATA:1,2012-09-02T01:30:00Z,30.3085,-88.1395,2.281,7.8,1111122 
DISL,ioos:station:DISL:CATA:1,2012-09-02T02:00:00Z,30.3085,-88.1395,2.279,7.58,1111122 
DISL,ioos:station:DISL:CATA:1,2012-09-02T02:30:00Z,30.3085,-88.1395,2.287,8.01,1111122 
DISL,ioos:station:DISL:CATA:1,2012-09-02T03:00:00Z,30.3085,-88.1395,2.284,7.95,1111122 
DISL,ioos:station:DISL:CATA:1,2012-09-02T03:30:00Z,30.3085,-88.1395,2.28,7.76,1111122 
DISL,ioos:station:DISL:CATA:1,2012-09-02T04:00:00Z,30.3085,-88.1395,2.277,7.49,1111122 
DISL,ioos:station:DISL:CATA:1,2012-09-02T04:30:00Z,30.3085,-88.1395,2.282,7.4,1111122 
DISL,ioos:station:DISL:CATA:1,2012-09-02T05:00:00Z,30.3085,-88.1395,2.275,7.35,1111122 
DISL,ioos:station:DISL:CATA:1,2012-09-02T05:30:00Z,30.3085,-88.1395,2.291,7.75,1111122 
DISL,ioos:station:DISL:CATA:1,2012-09-02T06:00:00Z,30.3085,-88.1395,2.299,8.2,1111122 
DISL,ioos:station:DISL:CATA:1,2012-09-02T06:30:00Z,30.3085,-88.1395,2.305,8.06,1111122 
DISL,ioos:station:DISL:CATA:1,2012-09-02T07:00:00Z,30.3085,-88.1395,2.304,7.9,1111122 
DISL,ioos:station:DISL:CATA:1,2012-09-02T07:30:00Z,30.3085,-88.1395,2.304,7.77,1111122 
DISL,ioos:station:DISL:CATA:1,2012-09-02T08:00:00Z,30.3085,-88.1395,2.292,7.69,1111122 
DISL,ioos:station:DISL:CATA:1,2012-09-02T08:30:00Z,30.3085,-88.1395,2.278,7.55,1111122 
DISL,ioos:station:DISL:CATA:1,2012-09-02T09:00:00Z,30.3085,-88.1395,2.268,7.44,1111122 
DISL,ioos:station:DISL:CATA:1,2012-09-02T09:30:00Z,30.3085,-88.1395,2.254,7.3,1111122 
DISL,ioos:station:DISL:CATA:1,2012-09-02T10:00:00Z,30.3085,-88.1395,2.258,7.18,1111122 
DISL,ioos:station:DISL:CATA:1,2012-09-02T10:30:00Z,30.3085,-88.1395,2.246,6.99,1111122 
DISL,ioos:station:DISL:CATA:1,2012-09-02T11:00:00Z,30.3085,-88.1395,2.243,6.75,1111122 
DISL,ioos:station:DISL:CATA:1,2012-09-02T11:30:00Z,30.3085,-88.1395,2.243,6.76,1111122 
DISL,ioos:station:DISL:CATA:1,2012-09-02T12:00:00Z,30.3085,-88.1395,2.243,6.69,1111122 
DISL,ioos:station:DISL:CATA:1,2012-09-02T12:30:00Z,30.3085,-88.1395,2.25,6.51,1111122 
DISL,ioos:station:DISL:CATA:1,2012-09-02T13:00:00Z,30.3085,-88.1395,2.261,6.17,1111122 
DISL,ioos:station:DISL:CATA:1,2012-09-02T13:30:00Z,30.3085,-88.1395,2.265,6.25,1111122 
DISL,ioos:station:DISL:CATA:1,2012-09-02T14:00:00Z,30.3085,-88.1395,2.267,6.86,1111122 
DISL,ioos:station:DISL:CATA:1,2012-09-02T14:30:00Z,30.3085,-88.1395,2.272,7.26,1111122 
DISL,ioos:station:DISL:CATA:1,2012-09-02T15:00:00Z,30.3085,-88.1395,2.283,7.5,1111122 
DISL,ioos:station:DISL:CATA:1,2012-09-02T15:30:00Z,30.3085,-88.1395,2.295,7.8,1111122 
DISL,ioos:station:DISL:CATA:1,2012-09-02T16:00:00Z,30.3085,-88.1395,2.296,8.09,1111122 
DISL,ioos:station:DISL:CATA:1,2012-09-02T16:30:00Z,30.3085,-88.1395,2.299,8.33,1111122 
DISL,ioos:station:DISL:CATA:1,2012-09-02T17:00:00Z,30.3085,-88.1395,2.321,8.59,1111122 
DISL,ioos:station:DISL:CATA:1,2012-09-02T17:30:00Z,30.3085,-88.1395,2.324,8.81,1111122 
DISL,ioos:station:DISL:CATA:1,2012-09-02T18:00:00Z,30.3085,-88.1395,2.344,8.98,1111122 
DISL,ioos:station:DISL:CATA:1,2012-09-02T18:30:00Z,30.3085,-88.1395,2.349,9.18,1111122 
DISL,ioos:station:DISL:CATA:1,2012-09-02T19:00:00Z,30.3085,-88.1395,2.363,9.25,1111122 
DISL,ioos:station:DISL:CATA:1,2012-09-02T19:30:00Z,30.3085,-88.1395,2.379,8.89,1111122 
DISL,ioos:station:DISL:CATA:1,2012-09-02T20:00:00Z,30.3085,-88.1395,2.382,9.29,1111122 
DISL,ioos:station:DISL:CATA:1,2012-09-02T20:30:00Z,30.3085,-88.1395,2.388,9.13,1111122 
DISL,ioos:station:DISL:CATA:1,2012-09-02T21:00:00Z,30.3085,-88.1395,2.39,9.06,1111122 
DISL,ioos:station:DISL:CATA:1,2012-09-02T21:30:00Z,30.3085,-88.1395,2.379,8.89,1111122 
DISL,ioos:station:DISL:CATA:1,2012-09-02T22:00:00Z,30.3085,-88.1395,2.374,8.43,1111122 
DISL,ioos:station:DISL:CATA:1,2012-09-02T22:30:00Z,30.3085,-88.1395,2.368,8.14,1111122 
DISL,ioos:station:DISL:CATA:1,2012-09-02T23:00:00Z,30.3085,-88.1395,2.372,8.02,1111122 
DISL,ioos:station:DISL:CATA:1,2012-09-02T23:30:00Z,30.3085,-88.1395,2.365,8.05,1111122 
DISL,ioos:station:DISL:CATA:1,2012-09-03T00:00:00Z,30.3085,-88.1395,2.369,8.07,1111122 
DISL,ioos:station:DISL:CATA:1,2012-09-03T00:30:00Z,30.3085,-88.1395,2.368,8.02,1111122 
DISL,ioos:station:DISL:CATA:1,2012-09-03T01:00:00Z,30.3085,-88.1395,2.375,7.94,1111122 
DISL,ioos:station:DISL:CATA:1,2012-09-03T01:30:00Z,30.3085,-88.1395,2.386,7.86,1111122 
DISL,ioos:station:DISL:CATA:1,2012-09-03T02:00:00Z,30.3085,-88.1395,2.397,7.76,1111122 
DISL,ioos:station:DISL:CATA:1,2012-09-03T02:30:00Z,30.3085,-88.1395,2.41,7.65,1111122 
DISL,ioos:station:DISL:CATA:1,2012-09-03T03:00:00Z,30.3085,-88.1395,2.425,7.67,1111122 
DISL,ioos:station:DISL:CATA:1,2012-09-03T03:30:00Z,30.3085,-88.1395,2.43,7.58,1111122 
DISL,ioos:station:DISL:CATA:1,2012-09-03T04:00:00Z,30.3085,-88.1395,2.426,7.42,1111122 
DISL,ioos:station:DISL:CATA:1,2012-09-03T04:30:00Z,30.3085,-88.1395,2.426,7.41,1111122 
DISL,ioos:station:DISL:CATA:1,2012-09-03T05:00:00Z,30.3085,-88.1395,2.429,7.39,1111122 
DISL,ioos:station:DISL:CATA:1,2012-09-03T05:30:00Z,30.3085,-88.1395,2.42,7.28,1111122 
DISL,ioos:station:DISL:CATA:1,2012-09-03T06:00:00Z,30.3085,-88.1395,2.424,7.18,1111122 
DISL,ioos:station:DISL:CATA:1,2012-09-03T06:30:00Z,30.3085,-88.1395,2.427,7.1,1111122 
DISL,ioos:station:DISL:CATA:1,2012-09-03T07:00:00Z,30.3085,-88.1395,2.414,7.04,1111122 
DISL,ioos:station:DISL:CATA:1,2012-09-03T07:30:00Z,30.3085,-88.1395,2.398,6.98,1111122 
DISL,ioos:station:DISL:CATA:1,2012-09-03T08:00:00Z,30.3085,-88.1395,2.395,6.92,1111122 
DISL,ioos:station:DISL:CATA:1,2012-09-03T08:30:00Z,30.3085,-88.1395,2.387,6.85,1111122 
DISL,ioos:station:DISL:CATA:1,2012-09-03T09:00:00Z,30.3085,-88.1395,2.377,6.85,1111122 
DISL,ioos:station:DISL:CATA:1,2012-09-03T09:30:00Z,30.3085,-88.1395,2.366,6.78,1111122 
DISL,ioos:station:DISL:CATA:1,2012-09-03T10:00:00Z,30.3085,-88.1395,2.361,6.77,1111122 
DISL,ioos:station:DISL:CATA:1,2012-09-03T10:30:00Z,30.3085,-88.1395,2.341,6.71,1111122 
DISL,ioos:station:DISL:CATA:1,2012-09-03T11:00:00Z,30.3085,-88.1395,2.322,6.7,1111122 
DISL,ioos:station:DISL:CATA:1,2012-09-03T11:30:00Z,30.3085,-88.1395,2.314,6.59,1111122 
DISL,ioos:station:DISL:CATA:1,2012-09-03T12:00:00Z,30.3085,-88.1395,2.306,6.54,1111122 
DISL,ioos:station:DISL:CATA:1,2012-09-03T12:30:00Z,30.3085,-88.1395,2.309,6.42,1111122 
DISL,ioos:station:DISL:CATA:1,2012-09-03T13:00:00Z,30.3085,-88.1395,2.304,6.35,1111122 
DISL,ioos:station:DISL:CATA:1,2012-09-03T13:30:00Z,30.3085,-88.1395,2.301,6.34,1111122 
DISL,ioos:station:DISL:CATA:1,2012-09-03T14:00:00Z,30.3085,-88.1395,2.311,6.39,1111122 
DISL,ioos:station:DISL:CATA:1,2012-09-03T14:30:00Z,30.3085,-88.1395,2.314,6.47,1111122 
DISL,ioos:station:DISL:CATA:1,2012-09-03T15:00:00Z,30.3085,-88.1395,2.323,6.65,1111122 
DISL,ioos:station:DISL:CATA:1,2012-09-03T15:30:00Z,30.3085,-88.1395,2.323,6.65,1111122 
DISL,ioos:station:DISL:CATA:1,2012-09-03T16:00:00Z,30.3085,-88.1395,2.313,6.67,1111122 
DISL,ioos:station:DISL:CATA:1,2012-09-03T16:30:00Z,30.3085,-88.1395,2.304,6.72,1111122 
DISL,ioos:station:DISL:CATA:1,2012-09-03T17:00:00Z,30.3085,-88.1395,2.32,6.84,1111122 
DISL,ioos:station:DISL:CATA:1,2012-09-03T17:30:00Z,30.3085,-88.1395,2.324,6.92,1111122 
DISL,ioos:station:DISL:CATA:1,2012-09-03T18:00:00Z,30.3085,-88.1395,2.323,6.78,1111122 
DISL,ioos:station:DISL:CATA:1,2012-09-03T18:30:00Z,30.3085,-88.1395,2.33,6.83,1111122 
DISL,ioos:station:DISL:CATA:1,2012-09-03T19:00:00Z,30.3085,-88.1395,2.342,7.0,1111122 
DISL,ioos:station:DISL:CATA:1,2012-09-03T19:30:00Z,30.3085,-88.1395,2.358,7.21,1111122 
DISL,ioos:station:DISL:CATA:1,2012-09-03T20:00:00Z,30.3085,-88.1395,2.352,7.37,1111122 
DISL,ioos:station:DISL:CATA:1,2012-09-03T20:30:00Z,30.3085,-88.1395,2.358,7.41,1111122 
DISL,ioos:station:DISL:CATA:1,2012-09-03T21:00:00Z,30.3085,-88.1395,2.366,7.41,1111122 
DISL,ioos:station:DISL:CATA:1,2012-09-03T21:30:00Z,30.3085,-88.1395,2.367,7.58,1111122 
DISL,ioos:station:DISL:CATA:1,2012-09-03T22:00:00Z,30.3085,-88.1395,2.36,7.82,1111122 
DISL,ioos:station:DISL:CATA:1,2012-09-03T22:30:00Z,30.3085,-88.1395,2.35,8.14,1111122 
DISL,ioos:station:DISL:CATA:1,2012-09-03T23:00:00Z,30.3085,-88.1395,2.346,8.29,1111122 
DISL,ioos:station:DISL:CATA:1,2012-09-03T23:30:00Z,30.3085,-88.1395,2.344,8.46,1111122 
DISL,ioos:station:DISL:CATA:1,2012-09-04T00:00:00Z,30.3085,-88.1395,2.341,8.57,1111122 
DISL,ioos:station:DISL:CATA:1,2012-09-04T00:30:00Z,30.3085,-88.1395,2.347,8.5,1111122 
DISL,ioos:station:DISL:CATA:1,2012-09-04T01:00:00Z,30.3085,-88.1395,2.356,8.22,1111122 
DISL,ioos:station:DISL:CATA:1,2012-09-04T01:30:00Z,30.3085,-88.1395,2.369,7.79,1111122 
DISL,ioos:station:DISL:CATA:1,2012-09-04T02:00:00Z,30.3085,-88.1395,2.364,7.5,1111122 
DISL,ioos:station:DISL:CATA:1,2012-09-04T02:30:00Z,30.3085,-88.1395,2.38,7.34,1111122 
DISL,ioos:station:DISL:CATA:1,2012-09-04T03:00:00Z,30.3085,-88.1395,2.4,7.28,1111122 
DISL,ioos:station:DISL:CATA:1,2012-09-04T03:30:00Z,30.3085,-88.1395,2.401,7.7,1111122 
DISL,ioos:station:DISL:CATA:1,2012-09-04T04:00:00Z,30.3085,-88.1395,2.418,7.84,1111122 
DISL,ioos:station:DISL:CATA:1,2012-09-04T04:30:00Z,30.3085,-88.1395,2.406,7.75,1111122 
DISL,ioos:station:DISL:CATA:1,2012-09-04T05:00:00Z,30.3085,-88.1395,2.407,7.54,1111122 
DISL,ioos:station:DISL:CATA:1,2012-09-04T05:30:00Z,30.3085,-88.1395,2.41,7.21,1111122 
DISL,ioos:station:DISL:CATA:1,2012-09-04T06:00:00Z,30.3085,-88.1395,2.414,7.04,1111122 
DISL,ioos:station:DISL:CATA:1,2012-09-04T06:30:00Z,30.3085,-88.1395,2.431,6.87,1111122 
DISL,ioos:station:DISL:CATA:1,2012-09-04T07:00:00Z,30.3085,-88.1395,2.423,6.83,1111122 
DISL,ioos:station:DISL:CATA:1,2012-09-04T07:30:00Z,30.3085,-88.1395,2.425,6.68,1111122 
DISL,ioos:station:DISL:CATA:1,2012-09-04T08:00:00Z,30.3085,-88.1395,2.424,6.61,1111122 
DISL,ioos:station:DISL:CATA:1,2012-09-04T08:30:00Z,30.3085,-88.1395,2.414,6.71,1111122 
DISL,ioos:station:DISL:CATA:1,2012-09-04T09:00:00Z,30.3085,-88.1395,2.402,6.62,1111122 
DISL,ioos:station:DISL:CATA:1,2012-09-04T09:30:00Z,30.3085,-88.1395,2.378,6.53,1111122 
DISL,ioos:station:DISL:CATA:1,2012-09-04T10:00:00Z,30.3085,-88.1395,2.36,6.5,1111122 
DISL,ioos:station:DISL:CATA:1,2012-09-04T10:30:00Z,30.3085,-88.1395,2.351,6.5,1111122 
DISL,ioos:station:DISL:CATA:1,2012-09-04T11:00:00Z,30.3085,-88.1395,2.343,6.47,1111122 
DISL,ioos:station:DISL:CATA:1,2012-09-04T11:30:00Z,30.3085,-88.1395,2.312,6.41,1111122 
DISL,ioos:station:DISL:CATA:1,2012-09-04T12:00:00Z,30.3085,-88.1395,2.296,6.35,1111122 
DISL,ioos:station:DISL:CATA:1,2012-09-04T12:30:00Z,30.3085,-88.1395,2.293,6.3,1111122 
DISL,ioos:station:DISL:CATA:1,2012-09-04T13:00:00Z,30.3085,-88.1395,2.277,6.29,1111122 
DISL,ioos:station:DISL:CATA:1,2012-09-04T13:30:00Z,30.3085,-88.1395,2.278,6.24,1111122 
DISL,ioos:station:DISL:CATA:1,2012-09-04T14:00:00Z,30.3085,-88.1395,2.264,6.29,1111122 
DISL,ioos:station:DISL:CATA:1,2012-09-04T14:30:00Z,30.3085,-88.1395,2.254,6.35,1111122 
DISL,ioos:station:DISL:CATA:1,2012-09-04T15:00:00Z,30.3085,-88.1395,2.25,6.37,1111122 
DISL,ioos:station:DISL:CATA:1,2012-09-04T15:30:00Z,30.3085,-88.1395,2.241,6.38,1111122 
DISL,ioos:station:DISL:CATA:1,2012-09-04T16:00:00Z,30.3085,-88.1395,2.247,6.39,1111122 
DISL,ioos:station:DISL:CATA:1,2012-09-04T16:30:00Z,30.3085,-88.1395,2.263,6.47,1111122 
DISL,ioos:station:DISL:CATA:1,2012-09-04T17:00:00Z,30.3085,-88.1395,2.249,6.55,1111122 
DISL,ioos:station:DISL:CATA:1,2012-09-04T17:30:00Z,30.3085,-88.1395,2.246,6.61,1111122 
DISL,ioos:station:DISL:CATA:1,2012-09-04T18:00:00Z,30.3085,-88.1395,2.244,6.59,1111122 
DISL,ioos:station:DISL:CATA:1,2012-09-04T18:30:00Z,30.3085,-88.1395,2.26,6.58,1111122 
DISL,ioos:station:DISL:CATA:1,2012-09-04T19:00:00Z,30.3085,-88.1395,2.27,6.59,1111122 
DISL,ioos:station:DISL:CATA:1,2012-09-04T19:30:00Z,30.3085,-88.1395,2.284,6.6,1111122 
DISL,ioos:station:DISL:CATA:1,2012-09-04T20:00:00Z,30.3085,-88.1395,2.303,6.68,1111122 
DISL,ioos:station:DISL:CATA:1,2012-09-04T20:30:00Z,30.3085,-88.1395,2.301,6.8,1111122 
DISL,ioos:station:DISL:CATA:1,2012-09-04T21:00:00Z,30.3085,-88.1395,1.862,6.85,1111122 
DISL,ioos:station:DISL:CATA:1,2012-09-04T21:30:00Z,30.3085,-88.1395,1.933,6.85,1111122 
DISL,ioos:station:DISL:CATA:1,2012-09-04T22:00:00Z,30.3085,-88.1395,1.977,6.85,1111122 
DISL,ioos:station:DISL:CATA:1,2012-09-04T22:30:00Z,30.3085,-88.1395,1.987,6.81,1111122 
DISL,ioos:station:DISL:CATA:1,2012-09-04T23:00:00Z,30.3085,-88.1395,2.001,6.69,1111122 
DISL,ioos:station:DISL:CATA:1,2012-09-04T23:30:00Z,30.3085,-88.1395,2.007,6.58,1111122 
DISL,ioos:station:DISL:CATA:1,2012-09-05T00:00:00Z,30.3085,-88.1395,2.039,6.54,1111122 
DISL,ioos:station:DISL:CATA:1,2012-09-05T00:30:00Z,30.3085,-88.1395,2.031,6.54,1111122 
DISL,ioos:station:DISL:CATA:1,2012-09-05T01:00:00Z,30.3085,-88.1395,2.031,6.57,1111122 
DISL,ioos:station:DISL:CATA:1,2012-09-05T01:30:00Z,30.3085,-88.1395,2.094,6.62,1111122 
DISL,ioos:station:DISL:CATA:1,2012-09-05T02:00:00Z,30.3085,-88.1395,2.071,6.58,1111122 
DISL,ioos:station:DISL:CATA:1,2012-09-05T02:30:00Z,30.3085,-88.1395,2.083,6.58,1111122 
DISL,ioos:station:DISL:CATA:1,2012-09-05T03:00:00Z,30.3085,-88.1395,2.084,6.58,1111122 
DISL,ioos:station:DISL:CATA:1,2012-09-05T03:30:00Z,30.3085,-88.1395,2.089,6.54,1111122 
DISL,ioos:station:DISL:CATA:1,2012-09-05T04:00:00Z,30.3085,-88.1395,2.074,6.47,1111122 
DISL,ioos:station:DISL:CATA:1,2012-09-05T04:30:00Z,30.3085,-88.1395,2.119,6.43,1111122 
DISL,ioos:station:DISL:CATA:1,2012-09-05T05:00:00Z,30.3085,-88.1395,2.104,6.19,1111122 
DISL,ioos:station:DISL:CATA:1,2012-09-05T05:30:00Z,30.3085,-88.1395,2.12,6.0,1111122 
DISL,ioos:station:DISL:CATA:1,2012-09-05T06:00:00Z,30.3085,-88.1395,2.141,6.07,1111122 
DISL,ioos:station:DISL:CATA:1,2012-09-05T06:30:00Z,30.3085,-88.1395,2.138,6.22,1111122 
DISL,ioos:station:DISL:CATA:1,2012-09-05T07:00:00Z,30.3085,-88.1395,2.169,6.12,1111122 
DISL,ioos:station:DISL:CATA:1,2012-09-05T07:30:00Z,30.3085,-88.1395,2.232,6.02,1111122 
DISL,ioos:station:DISL:CATA:1,2012-09-05T08:00:00Z,30.3085,-88.1395,2.172,6.03,1111122 
DISL,ioos:station:DISL:CATA:1,2012-09-05T08:30:00Z,30.3085,-88.1395,2.147,6.28,1111122 
DISL,ioos:station:DISL:CATA:1,2012-09-05T09:00:00Z,30.3085,-88.1395,2.13,6.43,1111122 
DISL,ioos:station:DISL:CATA:1,2012-09-05T09:30:00Z,30.3085,-88.1395,2.114,6.54,1111122 
DISL,ioos:station:DISL:CATA:1,2012-09-05T10:00:00Z,30.3085,-88.1395,2.152,6.61,1111122 
DISL,ioos:station:DISL:CATA:1,2012-09-05T10:30:00Z,30.3085,-88.1395,2.105,6.53,1111122 
DISL,ioos:station:DISL:CATA:1,2012-09-05T11:00:00Z,30.3085,-88.1395,2.087,6.48,1111122 
DISL,ioos:station:DISL:CATA:1,2012-09-05T11:30:00Z,30.3085,-88.1395,2.124,6.38,1111122 
DISL,ioos:station:DISL:CATA:1,2012-09-05T12:00:00Z,30.3085,-88.1395,2.183,6.36,1111122 
DISL,ioos:station:DISL:CATA:1,2012-09-05T12:30:00Z,30.3085,-88.1395,2.08,6.37,1111122 
DISL,ioos:station:DISL:CATA:1,2012-09-05T13:00:00Z,30.3085,-88.1395,2.042,6.35,1111122 
DISL,ioos:station:DISL:CATA:1,2012-09-05T13:30:00Z,30.3085,-88.1395,2.018,6.27,1111122 
DISL,ioos:station:DISL:CATA:1,2012-09-05T14:00:00Z,30.3085,-88.1395,2.016,6.32,1111122 
DISL,ioos:station:DISL:CATA:1,2012-09-05T14:30:00Z,30.3085,-88.1395,2.059,6.26,1111122 
DISL,ioos:station:DISL:CATA:1,2012-09-05T15:00:00Z,30.3085,-88.1395,2.032,6.29,1111122 
DISL,ioos:station:DISL:CATA:1,2012-09-05T15:30:00Z,30.3085,-88.1395,1.985,6.27,1111122 
DISL,ioos:station:DISL:CATA:1,2012-09-05T16:00:00Z,30.3085,-88.1395,1.94,6.27,1111122 
DISL,ioos:station:DISL:CATA:1,2012-09-05T16:30:00Z,30.3085,-88.1395,1.904,6.34,1111122 
DISL,ioos:station:DISL:CATA:1,2012-09-05T17:00:00Z,30.3085,-88.1395,1.871,6.57,1111122 
DISL,ioos:station:DISL:CATA:1,2012-09-05T17:30:00Z,30.3085,-88.1395,1.857,6.79,1111122 
DISL,ioos:station:DISL:CATA:1,2012-09-05T18:00:00Z,30.3085,-88.1395,1.837,7.01,1111122 
DISL,ioos:station:DISL:CATA:1,2012-09-05T18:30:00Z,30.3085,-88.1395,1.831,7.4,1111122 
DISL,ioos:station:DISL:CATA:1,2012-09-05T19:00:00Z,30.3085,-88.1395,1.834,7.42,1111122 
DISL,ioos:station:DISL:CATA:1,2012-09-05T19:30:00Z,30.3085,-88.1395,1.853,7.29,1111122 
DISL,ioos:station:DISL:CATA:1,2012-09-05T20:00:00Z,30.3085,-88.1395,1.876,7.31,1111122 
DISL,ioos:station:DISL:CATA:1,2012-09-05T20:30:00Z,30.3085,-88.1395,1.885,6.97,1111122 
DISL,ioos:station:DISL:CATA:1,2012-09-05T21:00:00Z,30.3085,-88.1395,1.874,7.63,1111122 
DISL,ioos:station:DISL:CATA:1,2012-09-05T21:30:00Z,30.3085,-88.1395,1.878,8.79,1111122 
DISL,ioos:station:DISL:CATA:1,2012-09-05T22:00:00Z,30.3085,-88.1395,1.87,8.9,1111122 
DISL,ioos:station:DISL:CATA:1,2012-09-05T22:30:00Z,30.3085,-88.1395,1.857,8.8,1111122 
DISL,ioos:station:DISL:CATA:1,2012-09-05T23:00:00Z,30.3085,-88.1395,1.855,8.6,1111122 
DISL,ioos:station:DISL:CATA:1,2012-09-05T23:30:00Z,30.3085,-88.1395,1.869,8.82,1111122 
DISL,ioos:station:DISL:CATA:1,2012-09-06T00:00:00Z,30.3085,-88.1395,1.879,8.75,1111122 
DISL,ioos:station:DISL:CATA:1,2012-09-06T00:30:00Z,30.3085,-88.1395,1.9,8.41,1111122 
DISL,ioos:station:DISL:CATA:1,2012-09-06T01:00:00Z,30.3085,-88.1395,1.921,7.96,1111122 
DISL,ioos:station:DISL:CATA:1,2012-09-06T01:30:00Z,30.3085,-88.1395,1.942,7.66,1111122 
DISL,ioos:station:DISL:CATA:1,2012-09-06T02:00:00Z,30.3085,-88.1395,1.986,7.48,1111122 
DISL,ioos:station:DISL:CATA:1,2012-09-06T02:30:00Z,30.3085,-88.1395,2.009,7.54,1111122 
DISL,ioos:station:DISL:CATA:1,2012-09-06T03:00:00Z,30.3085,-88.1395,2.034,7.5,1111122 
DISL,ioos:station:DISL:CATA:1,2012-09-06T03:30:00Z,30.3085,-88.1395,2.062,7.49,1111122 
DISL,ioos:station:DISL:CATA:1,2012-09-06T04:00:00Z,30.3085,-88.1395,2.09,7.33,1111122 
DISL,ioos:station:DISL:CATA:1,2012-09-06T04:30:00Z,30.3085,-88.1395,2.117,7.36,1111122 
DISL,ioos:station:DISL:CATA:1,2012-09-06T05:00:00Z,30.3085,-88.1395,2.139,7.4,1111122 
DISL,ioos:station:DISL:CATA:1,2012-09-06T05:30:00Z,30.3085,-88.1395,2.151,7.28,1111122 
DISL,ioos:station:DISL:CATA:1,2012-09-06T06:00:00Z,30.3085,-88.1395,2.163,7.1,1111122 
DISL,ioos:station:DISL:CATA:1,2012-09-06T06:30:00Z,30.3085,-88.1395,2.174,7.04,1111122 
DISL,ioos:station:DISL:CATA:1,2012-09-06T07:00:00Z,30.3085,-88.1395,2.193,6.88,1111122 
DISL,ioos:station:DISL:CATA:1,2012-09-06T07:30:00Z,30.3085,-88.1395,2.225,6.44,1111122 
DISL,ioos:station:DISL:CATA:1,2012-09-06T08:00:00Z,30.3085,-88.1395,2.235,6.57,1111122 
DISL,ioos:station:DISL:CATA:1,2012-09-06T08:30:00Z,30.3085,-88.1395,2.244,6.38,1111122 
DISL,ioos:station:DISL:CATA:1,2012-09-06T09:00:00Z,30.3085,-88.1395,2.219,6.09,1111122 
DISL,ioos:station:DISL:CATA:1,2012-09-06T09:30:00Z,30.3085,-88.1395,2.208,6.18,1111122 
DISL,ioos:station:DISL:CATA:1,2012-09-06T10:00:00Z,30.3085,-88.1395,2.195,6.3,1111122 
DISL,ioos:station:DISL:CATA:1,2012-09-06T10:30:00Z,30.3085,-88.1395,2.186,6.4,1111122 
DISL,ioos:station:DISL:CATA:1,2012-09-06T11:00:00Z,30.3085,-88.1395,2.165,6.88,1111122 
DISL,ioos:station:DISL:CATA:1,2012-09-06T11:30:00Z,30.3085,-88.1395,2.155,6.89,1111122 
DISL,ioos:station:DISL:CATA:1,2012-09-06T12:00:00Z,30.3085,-88.1395,2.137,6.86,1111122 
DISL,ioos:station:DISL:CATA:1,2012-09-06T12:30:00Z,30.3085,-88.1395,2.107,6.87,1111122 
DISL,ioos:station:DISL:CATA:1,2012-09-06T13:00:00Z,30.3085,-88.1395,2.086,6.9,1111122 
DISL,ioos:station:DISL:CATA:1,2012-09-06T13:30:00Z,30.3085,-88.1395,2.056,6.83,1111122 
DISL,ioos:station:DISL:CATA:1,2012-09-06T14:00:00Z,30.3085,-88.1395,2.027,6.87,1111122 
DISL,ioos:station:DISL:CATA:1,2012-09-06T14:30:00Z,30.3085,-88.1395,2.015,6.97,1111122 
DISL,ioos:station:DISL:CATA:1,2012-09-06T15:00:00Z,30.3085,-88.1395,1.982,7.02,1111122 
DISL,ioos:station:DISL:CATA:1,2012-09-06T15:30:00Z,30.3085,-88.1395,1.967,7.03,1111122 